FW4207 Weather Reports


time (UTC)temp
C
wind
direction
speed
KPH
gust
KPH
rain 1hr
cm
rain 24hr
cm
rain mn
cm
humidity
%
barometer
mb
20260508184540 20 0 4.8 25.7 0.00 0.00 0.00 32 1012.9
20260508183544 20 0 3.2 25.7 0.00 0.00 0.00 32 1012.8
20260508181501 19 0 8.0 24.1 0.00 0.00 0.00 35 1013.0
20260508180441 18 0 3.2 19.3 0.00 0.00 0.00 35 1013.4
20260508175449 18 0 3.2 19.3 0.00 0.00 0.00 37 1013.7
20260508174434 18 0 3.2 19.3 0.00 0.00 0.00 34 1013.9
20260508173437 17 0 3.2 12.9 0.00 0.00 0.00 39 1014.1
20260508172406 17 0 1.6 12.9 0.00 0.00 0.00 38 1014.3
20260508165205 16 0 4.8 14.5 0.00 0.00 0.00 38 1015.3
20260508164227 16 0 3.2 17.7 0.00 0.00 0.00 37 1015.3
20260508163212 17 0 4.8 17.7 0.00 0.00 0.00 37 1015.3
20260508160017 16 0 8.0 24.1 0.00 0.00 0.00 35 1015.4
20260508155016 16 0 6.4 24.1 0.00 0.00 0.00 37 1015.4
20260508154027 15 0 6.4 24.1 0.00 0.00 0.00 39 1015.5
20260508153034 14 0 3.2 20.9 0.00 0.00 0.00 41 1015.6
20260508152000 13 0 3.2 20.9 0.00 0.00 0.00 43 1015.6
20260508151003 12 0 3.2 12.9 0.00 0.00 0.00 43 1015.7
20260508150005 12 0 4.8 17.7 0.00 0.00 0.00 44 1015.6
20260508145022 12 0 4.8 17.7 0.00 0.00 0.00 44 1015.8
20260508144034 11 0 3.2 16.1 0.00 0.00 0.00 46 1015.7
20260508141949 11 0 4.8 14.5 0.00 0.00 0.00 48 1015.8
20260508140951 11 0 3.2 14.5 0.00 0.00 0.00 48 1015.9
20260508135919 10 0 4.8 14.5 0.00 0.00 0.00 47 1015.9
20260508134907 10 0 3.2 12.9 0.00 0.00 0.00 47 1015.9
20260508133859 10 0 3.2 12.9 0.00 0.00 0.00 47 1015.9
20260508132842 10 0 3.2 14.5 0.00 0.00 0.00 46 1016.0
20260508131849 10 0 4.8 16.1 0.00 0.00 0.00 47 1015.8
20260508130842 10 0 4.8 17.7 0.00 0.00 0.00 46 1015.9
20260508125826 10 0 4.8 17.7 0.00 0.00 0.00 46 1015.9
20260508124810 10 0 4.8 17.7 0.00 0.00 0.00 47 1015.9
20260508123827 10 0 4.8 14.5 0.00 0.00 0.00 47 1015.7
20260508122824 9 0 3.2 11.3 0.00 0.00 0.00 48 1015.8
20260508121830 9 0 3.2 12.9 0.00 0.00 0.00 48 1015.7
20260508115630 8 0 3.2 12.9 0.00 0.00 0.00 49 1015.8
20260508114640 8 0 1.6 11.3 0.00 0.00 0.00 50 1015.7
20260508112531 7 0 1.6 6.4 0.00 0.00 0.00 50 1015.4
20260508111511 7 0 1.6 6.4 0.00 0.00 0.00 50 1015.3
20260508110503 7 0 0.0 8.0 0.00 0.00 0.00 51 1015.4
20260508105519 6 0 1.6 8.0 0.00 0.00 0.00 51 1015.5
20260508104455 6 0 1.6 11.3 0.00 0.00 0.00 51 1015.5
20260508103442 6 0 1.6 11.3 0.00 0.00 0.00 51 1015.6
20260508102449 6 0 1.6 8.0 0.00 0.00 0.00 51 1015.4
20260508101455 6 0 1.6 4.8 0.00 0.00 0.00 51 1015.3
20260508094217 6 0 0.0 0.0 0.00 0.00 0.00 52 1015.2
20260508093235 6 0 0.0 1.6 0.00 0.00 0.00 51 1015.3
20260508092240 6 0 0.0 1.6 0.00 0.00 0.00 50 1015.2
20260508090058 7 0 0.0 6.4 0.00 0.00 0.00 50 1015.4
20260508085116 7 0 0.0 6.4 0.00 0.00 0.00 50 1015.4
20260508084105 7 0 1.6 6.4 0.00 0.00 0.00 50 1015.4
20260508083046 7 0 1.6 8.0 0.00 0.00 0.00 50 1015.4
20260508082020 7 0 1.6 8.0 0.00 0.00 0.00 50 1015.4
20260508075841 7 0 0.0 6.4 0.00 0.00 0.00 50 1015.5
20260508072614 7 0 0.0 0.0 0.00 0.00 0.00 54 1015.3
20260508071614 7 0 0.0 0.0 0.00 0.00 0.00 56 1015.4
20260508070624 7 0 0.0 0.0 0.00 0.00 0.00 55 1015.5
20260508065617 7 0 0.0 0.0 0.00 0.00 0.00 56 1015.7
20260508064638 7 0 0.0 0.0 0.00 0.00 0.00 57 1015.8
20260508063643 8 0 0.0 0.0 0.00 0.00 0.00 56 1015.7
20260508062658 8 0 0.0 0.0 0.00 0.00 0.00 57 1015.7
20260508061650 8 0 0.0 1.6 0.00 0.00 0.00 56 1015.9
20260508060643 8 0 0.0 0.0 0.00 0.00 0.00 56 1016.0
20260508054601 9 0 0.0 11.3 0.00 0.00 0.00 54 1016.8
20260508053538 9 0 0.0 0.0 0.00 0.00 0.00 52 1016.7
20260508052529 9 0 0.0 0.0 0.00 0.00 0.00 50 1016.8
20260508051511 9 0 0.0 0.0 0.00 0.00 0.00 52 1016.1
20260508050528 9 0 0.0 0.0 0.00 0.00 0.00 50 1015.8
20260508045534 9 0 0.0 0.0 0.00 0.00 0.00 53 1015.7
20260508044543 9 0 0.0 0.0 0.00 0.00 0.00 52 1015.9
20260508043557 9 0 0.0 0.0 0.00 0.00 0.00 52 1015.8
20260508041459 9 0 0.0 0.0 0.00 0.00 0.00 51 1015.9
20260508040426 9 0 0.0 0.0 0.00 0.00 0.00 50 1016.0
20260508035447 9 0 0.0 0.0 0.00 0.00 0.00 49 1016.0
20260508032150 10 0 0.0 0.0 0.00 0.00 0.00 47 1016.1
20260508031127 10 0 0.0 0.0 0.00 0.00 0.00 47 1016.0
20260508024958 10 0 0.0 0.0 0.00 0.00 0.00 45 1016.4
20260508024017 10 0 0.0 0.0 0.00 0.00 0.00 48 1016.3
20260508022954 10 0 0.0 0.0 0.00 0.00 0.00 45 1016.1
20260508020847 11 0 0.0 0.0 0.00 0.00 0.00 41 1016.0
20260508015822 11 0 0.0 0.0 0.00 0.00 0.00 40 1015.9
20260508014835 11 0 0.0 0.0 0.00 0.00 0.00 39 1015.9
20260508013838 11 0 1.6 8.0 0.00 0.00 0.00 38 1015.7
20260508012816 11 0 0.0 3.2 0.00 0.00 0.00 40 1016.0
20260508011820 11 0 0.0 0.0 0.00 0.00 0.00 43 1015.9
20260508010758 11 0 0.0 0.0 0.00 0.00 0.00 41 1015.8
20260508005733 11 0 0.0 0.0 0.00 0.00 0.00 40 1015.7
20260508004721 12 0 0.0 0.0 0.00 0.00 0.00 39 1015.7
20260508003718 12 0 0.0 0.0 0.00 0.00 0.00 37 1015.7
20260508002644 12 0 0.0 0.0 0.00 0.00 0.00 37 1015.7
20260508000511 12 0 0.0 0.0 0.00 0.00 0.00 34 1015.6
20260507235445 13 0 1.6 11.3 0.00 0.00 0.00 31 1015.5
20260507234418 13 0 1.6 11.3 0.00 0.00 0.00 29 1015.4
20260507233412 13 0 1.6 6.4 0.00 0.00 0.00 29 1015.3
20260507232346 13 0 3.2 12.9 0.00 0.00 0.00 28 1015.3
20260507231347 13 0 1.6 12.9 0.00 0.00 0.00 29 1015.3
20260507230331 13 0 3.2 12.9 0.00 0.00 0.00 29 1015.3
20260507225314 14 0 1.6 12.9 0.00 0.00 0.00 28 1015.5
20260507224254 14 0 3.2 12.9 0.00 0.00 0.00 27 1015.5
20260507223256 14 0 1.6 16.1 0.00 0.00 0.00 29 1015.6
20260507222316 14 0 3.2 16.1 0.00 0.00 0.00 28 1015.6
20260507221247 14 0 3.2 16.1 0.00 0.00 0.00 29 1015.7
20260507220250 13 0 3.2 14.5 0.00 0.00 0.00 27 1015.7
20260507215300 14 0 4.8 16.1 0.00 0.00 0.00 27 1015.7
20260507214242 15 0 6.4 22.5 0.00 0.00 0.00 27 1015.6
20260507213236 14 0 3.2 17.7 0.00 0.00 0.00 27 1015.4
20260507212228 13 0 4.8 14.5 0.00 0.00 0.00 28 1015.5
20260507204948 15 0 3.2 22.5 0.00 0.00 0.00 28 1015.3
20260507202832 15 0 3.2 19.3 0.00 0.00 0.00 27 1015.3
20260507200704 15 0 4.8 19.3 0.00 0.00 0.00 29 1015.5
20260507195724 15 0 8.0 22.5 0.00 0.00 0.00 28 1015.7
20260507194723 14 0 4.8 24.1 0.00 0.00 0.00 28 1015.5
20260507193729 14 0 8.0 24.1 0.00 0.00 0.00 28 1015.5
20260507192717 13 0 6.4 20.9 0.00 0.00 0.00 29 1015.8
20260507191737 14 0 8.0 20.9 0.00 0.00 0.00 28 1015.9
20260507190745 14 0 6.4 17.7 0.00 0.00 0.00 31 1015.8
20260507185735 14 0 8.0 22.5 0.00 0.00 0.00 29 1015.9